This demonstration page uses our WeatherBlox Daily Observations layout. Learn more.

Left ArrowRight Arrow

41.55636, -103.73856

Hourly Observations for July 18, 2020

Temp ( °F °C ) Dew Point ( °F °C ) Humidity (%) Winds ( mph kmh ) Pressure ( in mb ) Visibility ( mi km ) Precip ( " mm )
6:58 pm 18:58 Mostly Clear 94 34.2 33 0.6 12 12 SSE 8 13 29.77 1008 10 16 0.00 0.00
7:58 pm 19:58 Mostly Cloudy 84 29.1 34 1.2 16 16 SW 6 9 29.78 1009 10 16 0.00 0.00
8:58 pm 20:58 Partly Cloudy 82 27.6 35 1.7 19 19 W 9 15 29.80 1009 10 16 0.00 0.00
9:58 pm 21:58 Clear 74 23.1 36 2.2 25 25 WSW 13 20 29.81 1010 10 16 0.00 0.00
10:58 pm 22:58 Clear 76 24.6 37 2.8 24 24 WNW 9 15 29.80 1009 10 16 0.00 0.00
11:58 pm 23:58 Clear 76 24.3 37 2.6 24 24 SSW 5 7 29.80 1009 10 16 0.00 0.00
12:58 am 00:58 Clear 71 21.4 38 3.2 30 30 W 5 7 29.80 1009 10 16 0.00 0.00
1:58 am 01:58 Clear 72 22 38 3.1 29 29 Calm 29.78 1008 10 16 0.00 0.00
2:58 am 02:58 Clear 69 20.7 39 3.7 33 33 W 3 6 29.78 1008 10 16 0.00 0.00
3:58 am 03:58 Clear 69 20.5 40 4.5 35 35 WNW 7 11 29.78 1008 10 16 0.00 0.00
4:58 am 04:58 Clear 67 19.2 40 4.6 38 38 W 7 11 29.80 1009 10 16 0.00 0.00
5:58 am 05:58 Sunny 64 18 40 4.7 42 42 SW 8 13 29.81 1009 10 16 0.00 0.00
6:58 am 06:58 Sunny 70 21.3 40 4.7 34 34 W 7 11 29.80 1009 10 16 0.00 0.00
7:58 am 07:58 Sunny 78 25.8 45 7.1 30 30 N 7 11 29.82 1010 10 16 0.00 0.00
8:58 am 08:58 Sunny 82 27.9 40 4.2 22 22 NW 12 19 29.84 1010 10 16 0.00 0.00
9:58 am 09:58 Sunny 86 30.2 38 3.6 18 18 NW 12 19 29.85 1011 10 16 0.00 0.00
10:58 am 10:58 Sunny 87 30.5 40 4.4 19 19 NNW 14 22 29.86 1011 10 16 0.00 0.00
11:58 am 11:58 Sunny 89 31.5 45 7 22 22 NNE 14 22 29.87 1011 10 16 0.00 0.00
12:58 pm 12:58 Sunny 89 31.7 45 7 21 21 NNE 10 17 29.87 1012 10 16 0.00 0.00
1:58 pm 13:58 Sunny 91 32.7 44 6.9 20 20 NNE 15 24 29.86 1011 10 16 0.00 0.00
2:58 pm 14:58 Sunny 89 31.8 46 7.5 22 22 NE 13 20 29.86 1011 10 16 0.00 0.00
3:58 pm 15:58 Sunny 89 31.6 51 10.3 27 27 ENE 18 30 29.87 1012 10 16 0.00 0.00
4:58 pm 16:58 Sunny 87 30.7 51 10.4 28 28 E 13 20 29.89 1012 10 16 0.00 0.00
5:58 pm 17:58 Sunny 85 29.6 51 10.6 31 31 ENE 16 26 29.91 1013 10 16 0.00 0.00

Powered by AerisWeather